Weather History for Tacoma Narrows, WA

Change the Weather History Date:

Monday, February 18, 2013

  Actual Average Record
Temperature  
Mean Temperature 41 °F -  
Max Temperature 45 °F 47 °F 53 °F (1998)
Min Temperature 37 °F 36 °F 28 °F (2006)
Degree Days  
Heating Degree Days 24    
Moisture  
Dew Point 35 °F    
Average Humidity 82    
Maximum Humidity 93    
Minimum Humidity 60    
Precipitation  
Precipitation 0.02 in - - ()
Sea Level Pressure  
Sea Level Pressure 29.95 in    
Wind  
Wind Speed 2 mph (South)    
Max Wind Speed 10 mph    
Max Gust Speed -    
Visibility 10 miles    
Events Rain    
Averages and records for this station are not official NWS values.
T = Trace of Precipitation, MM = Missing Value Source: NWS Daily Summary

Daily Weather History Graph

Daily Weather History Graph

Search for Another Location

Airport:

Trip Planner

Search our weather history database for the weather conditions in past years. The results will help you decide how hot, cold, wet, or windy it might be!

Date:

Astronomy

Feb. 18, 2013 Rise Set
Actual Time 7:09 AM PST 5:39 PM PST
Civil Twilight 6:38 AM PST 6:10 PM PST
Nautical Twilight 6:02 AM PST 6:46 PM PST
Astronomical Twilight 5:27 AM PST 7:21 PM PST
Moon 11:17 AM PST (2/18) 2:05 AM PST (2/18)
Length of Visible Light 11h 32m
Length of Day
10h 29m
First Quarter, 59% of the Moon is Illuminated
Feb 18
First Quarter
Feb 25
Full
Mar 4
Last Quarter
Mar 11
New
Mar 19
First Quarter

Hourly Weather History & Observations

Time (PST) Temp. Windchill Dew Point Humidity Pressure Visibility Wind Dir Wind Speed Gust Speed Precip Events Conditions
12:53 AM 39.9 °F 37.8 °F 36.0 °F 86% 30.10 in 10.0 mi SE 3.5 mph - N/A   Clear
1:53 AM 39.0 °F 35.7 °F 35.1 °F 86% 30.08 in 10.0 mi South 4.6 mph - N/A   Partly Cloudy
2:53 AM 39.0 °F - 36.0 °F 89% 30.06 in 10.0 mi Calm Calm - N/A   Scattered Clouds
3:49 AM 39.2 °F - 35.6 °F 87% 30.04 in 10.0 mi Calm Calm - N/A   Scattered Clouds
3:53 AM 39.0 °F - 36.0 °F 89% 30.04 in 10.0 mi Calm Calm - N/A   Mostly Cloudy
4:00 AM 39.2 °F - 35.6 °F 87% 30.03 in 10.0 mi Calm Calm - N/A   Mostly Cloudy
4:41 AM 39.2 °F - 35.6 °F 87% 30.02 in 10.0 mi Calm Calm - N/A   Scattered Clouds
4:53 AM 37.9 °F - 35.1 °F 89% 30.03 in 10.0 mi Calm Calm - N/A   Scattered Clouds
5:53 AM 37.9 °F - 35.1 °F 89% 30.02 in 10.0 mi Calm Calm - N/A   Overcast
6:01 AM 37.4 °F - 35.6 °F 93% 30.01 in 10.0 mi Calm Calm - N/A   Overcast
6:44 AM 37.4 °F - 35.6 °F 93% 29.99 in 10.0 mi Calm Calm - N/A   Overcast
6:53 AM 37.9 °F 34.4 °F 35.1 °F 89% 30.01 in 10.0 mi SSW 4.6 mph - N/A   Overcast
7:01 AM 39.2 °F 35.9 °F 35.6 °F 87% 30.00 in 10.0 mi SSW 4.6 mph - N/A   Overcast
7:30 AM 37.4 °F - 35.6 °F 93% 30.00 in 10.0 mi Calm Calm - N/A   Scattered Clouds
7:42 AM 37.4 °F - 35.6 °F 93% 30.00 in 10.0 mi Calm Calm - N/A   Mostly Cloudy
7:53 AM 37.9 °F 35.5 °F 36.0 °F 93% 30.01 in 10.0 mi SSW 3.5 mph - N/A   Mostly Cloudy
8:01 AM 39.2 °F - 35.6 °F 87% 29.99 in 10.0 mi Calm Calm - N/A   Mostly Cloudy
8:53 AM 39.0 °F 36.8 °F 36.0 °F 89% 29.99 in 10.0 mi ESE 3.5 mph - N/A   Mostly Cloudy
9:24 AM 39.2 °F 35.9 °F 35.6 °F 87% 29.98 in 10.0 mi South 4.6 mph - N/A   Mostly Cloudy
9:53 AM 39.9 °F 36.7 °F 36.0 °F 86% 29.99 in 10.0 mi South 4.6 mph - N/A   Mostly Cloudy
10:53 AM 41.0 °F - 36.0 °F 82% 29.97 in 10.0 mi Calm Calm - N/A   Overcast
11:53 AM 42.1 °F 40.2 °F 35.1 °F 76% 29.96 in 10.0 mi South 3.5 mph - N/A   Mostly Cloudy
12:53 PM 43.0 °F 39.5 °F 35.1 °F 74% 29.94 in 10.0 mi South 5.8 mph - N/A   Mostly Cloudy
1:53 PM 44.1 °F 39.0 °F 34.0 °F 68% 29.92 in 10.0 mi SSW 9.2 mph - N/A   Overcast
2:53 PM 45.0 °F 39.7 °F 33.1 °F 63% 29.90 in 10.0 mi South 10.4 mph - N/A   Overcast
3:53 PM 45.0 °F 40.1 °F 32.0 °F 60% 29.88 in 10.0 mi South 9.2 mph - N/A   Overcast
4:53 PM 45.0 °F 39.7 °F 33.1 °F 63% 29.86 in 10.0 mi South 10.4 mph - N/A   Overcast
5:53 PM 44.1 °F 42.5 °F 34.0 °F 68% 29.84 in 10.0 mi South 3.5 mph - 0.00 in   Overcast
6:53 PM 44.1 °F - 34.0 °F 68% 29.82 in 10.0 mi Calm Calm - N/A   Overcast
7:53 PM 43.0 °F - 33.1 °F 68% 29.80 in 10.0 mi Calm Calm - N/A   Overcast
8:53 PM 43.0 °F - 33.1 °F 68% 29.79 in 10.0 mi Calm Calm - N/A   Overcast
9:53 PM 42.1 °F - 34.0 °F 73% 29.79 in 10.0 mi Calm Calm - N/A   Overcast
10:53 PM 41.0 °F 39.0 °F 34.0 °F 76% 29.78 in 10.0 mi South 3.5 mph - 0.01 in Rain Light Rain
11:53 PM 39.9 °F - 36.0 °F 86% 29.76 in 10.0 mi Calm Calm - 0.01 in   Overcast